TimePST,TemperatureF,Dew PointF,Humidity,Sea Level PressureIn,VisibilityMPH,Wind Direction,Wind SpeedMPH,Gust SpeedMPH,PrecipitationIn,Events,Conditions,WindDirDegrees,DateUTC
12:52 AM,45.0,5.0,19,30.18,10.0,NE,13.8,-,N/A,,Clear,40,2013-01-21 08:52:00
1:52 AM,45.0,5.0,19,30.18,10.0,NNE,17.3,-,N/A,,Clear,30,2013-01-21 09:52:00
2:52 AM,45.0,5.0,19,30.18,10.0,NE,17.3,-,N/A,,Clear,40,2013-01-21 10:52:00
3:52 AM,44.1,5.0,20,30.17,10.0,NE,16.1,-,N/A,,Clear,40,2013-01-21 11:52:00
4:52 AM,45.0,5.0,19,30.19,10.0,NE,16.1,-,N/A,,Clear,50,2013-01-21 12:52:00
5:52 AM,45.0,3.9,18,30.20,10.0,NE,16.1,-,N/A,,Clear,50,2013-01-21 13:52:00
6:52 AM,44.1,3.9,19,30.22,10.0,NE,18.4,-,N/A,,Clear,40,2013-01-21 14:52:00
7:52 AM,46.0,5.0,19,30.23,10.0,NNE,17.3,-,N/A,,Clear,30,2013-01-21 15:52:00
8:52 AM,48.9,5.0,17,30.25,10.0,NE,19.6,25.3,N/A,,Clear,40,2013-01-21 16:52:00
9:52 AM,55.9,3.0,12,30.24,10.0,NNE,13.8,-,N/A,,Clear,20,2013-01-21 17:52:00
10:52 AM,59.0,3.9,11,30.23,10.0,East,12.7,-,N/A,,Clear,90,2013-01-21 18:52:00
11:52 AM,61.0,1.0,9,30.20,10.0,ESE,10.4,-,N/A,,Clear,110,2013-01-21 19:52:00
12:52 PM,62.1,-0.0,8,30.17,10.0,ESE,10.4,-,N/A,,Clear,120,2013-01-21 20:52:00
1:52 PM,63.0,1.0,8,30.14,10.0,ESE,15.0,-,N/A,,Clear,120,2013-01-21 21:52:00
2:52 PM,63.0,-0.0,8,30.13,10.0,ESE,16.1,-,N/A,,Clear,120,2013-01-21 22:52:00
3:52 PM,62.1,-0.0,8,30.12,10.0,ESE,16.1,-,N/A,,Clear,120,2013-01-21 23:52:00
4:52 PM,57.9,-2.0,9,30.13,10.0,ESE,10.4,-,N/A,,Clear,110,2013-01-22 00:52:00
5:52 PM,52.0,-0.0,12,30.15,10.0,Calm,Calm,-,N/A,,Clear,0,2013-01-22 01:52:00
6:52 PM,46.9,-0.0,14,30.16,10.0,Calm,Calm,-,N/A,,Clear,0,2013-01-22 02:52:00
7:52 PM,48.9,3.0,15,30.16,10.0,NE,11.5,-,N/A,,Clear,40,2013-01-22 03:52:00
8:52 PM,48.9,3.9,16,30.17,10.0,NE,12.7,-,N/A,,Clear,40,2013-01-22 04:52:00
9:52 PM,46.9,7.0,20,30.17,10.0,NE,10.4,-,N/A,,Clear,40,2013-01-22 05:52:00
10:52 PM,44.1,6.1,21,30.17,10.0,ENE,3.5,-,N/A,,Clear,60,2013-01-22 06:52:00
11:52 PM,46.0,9.0,22,30.17,10.0,NE,10.4,-,N/A,,Clear,40,2013-01-22 07:52:00